Weather History for Limon, CO

Change the Weather History Date:

Monday, September 9, 2013

  Actual Average Record
Temperature  
Mean Temperature 69 °F -  
Max Temperature 87 °F - 89 °F (2004)
Min Temperature 50 °F - 28 °F (2001)
Degree Days  
Heating Degree Days 0    
Month to date heating degree days 1  
Cooling Degree Days 4    
Month to date cooling degree days 53  
Growing Degree Days 18 (Base 50)    
Moisture  
Dew Point 51 °F    
Average Humidity 55    
Maximum Humidity 84    
Minimum Humidity 25    
Precipitation  
Precipitation 0.00 in - 0.49 in (2002)
Month to date precipitation T  
Year to date precipitation 12.15  
Sea Level Pressure  
Sea Level Pressure 29.81 in    
Wind  
Wind Speed 11 mph (North)    
Max Wind Speed 35 mph    
Max Gust Speed 41 mph    
Visibility 10 miles    
Events      
T = Trace of Precipitation, MM = Missing Value Source: NWS Daily Summary

Daily Weather History Graph

Daily Weather History Graph

Search for Another Location

Airport:

Trip Planner

Search our weather history database for the weather conditions in past years. The results will help you decide how hot, cold, wet, or windy it might be!

Date:

Astronomy

Sep. 09, 2013 Rise Set
Actual Time 6:30 AM MDT 7:12 PM MDT
Civil Twilight 6:03 AM MDT 7:39 PM MDT
Nautical Twilight 5:31 AM MDT 8:11 PM MDT
Astronomical Twilight 4:58 AM MDT 8:44 PM MDT
Moon 10:52 AM MDT (9/9) 9:32 PM MDT (9/9)
Length of Visible Light 13h 35m
Length of Day
12h 41m
Waxing Crescent, 19% of the Moon is Illuminated
Sep 9
Waxing Crescent
Sep 12
First Quarter
Sep 19
Full
Sep 26
Last Quarter
Oct 4
New

Hourly Weather History & Observations

Time (MDT) Temp. Dew Point Humidity Pressure Visibility Wind Dir Wind Speed Gust Speed Precip Events Conditions
12:55 AM 66.0 °F 46.0 °F 48% 29.72 in 10.0 mi ESE 10.4 mph - N/A   Clear
1:55 AM 62.1 °F 46.0 °F 56% 29.72 in 10.0 mi ESE 8.1 mph - N/A   Clear
2:55 AM 62.1 °F 46.0 °F 56% 29.70 in 10.0 mi ESE 8.1 mph - N/A   Clear
3:55 AM 55.0 °F 45.0 °F 69% 29.73 in 10.0 mi West 6.9 mph - N/A   Partly Cloudy
4:55 AM 51.1 °F 44.1 °F 77% 29.74 in 10.0 mi NNW 4.6 mph - N/A   Clear
5:55 AM 51.1 °F 44.1 °F 77% 29.76 in 10.0 mi West 8.1 mph - N/A   Clear
6:55 AM 55.0 °F 46.0 °F 72% 29.78 in 10.0 mi NW 6.9 mph - N/A   Partly Cloudy
7:55 AM 64.0 °F 50.0 °F 60% 29.78 in 10.0 mi NNW 11.5 mph - N/A   Clear
8:55 AM 70.0 °F 50.0 °F 49% 29.79 in 10.0 mi NNW 10.4 mph - N/A   Clear
9:55 AM 75.9 °F 50.0 °F 40% 29.78 in 10.0 mi North 13.8 mph - N/A   Clear
10:55 AM 80.1 °F 51.1 °F 36% 29.78 in 10.0 mi NNE 16.1 mph 23.0 mph N/A   Clear
11:55 AM 82.0 °F 52.0 °F 35% 29.76 in 10.0 mi North 11.5 mph 29.9 mph N/A   Clear
12:55 PM 82.9 °F 52.0 °F 34% 29.74 in 10.0 mi ENE 13.8 mph 17.3 mph N/A   Clear
1:55 PM 84.9 °F 48.9 °F 29% 29.72 in 10.0 mi North 10.4 mph - N/A   Clear
2:55 PM 84.9 °F 48.0 °F 28% 29.69 in 10.0 mi ESE 8.1 mph - N/A   Clear
3:55 PM 84.9 °F 46.0 °F 26% 29.70 in 10.0 mi Variable 3.5 mph - N/A   Clear
4:55 PM 84.0 °F 45.0 °F 25% 29.70 in 10.0 mi South 6.9 mph - N/A   Partly Cloudy
5:55 PM 82.9 °F 45.0 °F 26% 29.71 in 10.0 mi SSE 8.1 mph - N/A   Scattered Clouds
6:52 PM 66.2 °F 55.4 °F 68% 29.97 in 10.0 mi North 20.7 mph 36.8 mph N/A   Squalls
6:55 PM 66.0 °F 55.9 °F 70% 29.79 in 10.0 mi North 28.8 mph 39.1 mph N/A   Mostly Cloudy
7:05 PM 62.6 °F 55.4 °F 77% 29.97 in 10.0 mi North 31.1 mph 41.4 mph N/A   Overcast
7:55 PM 62.1 °F 55.9 °F 80% 29.82 in 10.0 mi North 20.7 mph 27.6 mph N/A   Partly Cloudy
8:55 PM 60.1 °F 55.0 °F 83% 29.86 in 10.0 mi NNW 17.3 mph 28.8 mph N/A   Clear
9:55 PM 60.1 °F 55.9 °F 86% 29.87 in 10.0 mi NNW 13.8 mph - N/A   Mostly Cloudy
10:09 PM 60.8 °F 55.4 °F 82% 30.08 in 10.0 mi NW 13.8 mph - N/A   Overcast
10:29 PM 60.8 °F 55.4 °F 82% 30.09 in 10.0 mi NNW 15.0 mph 18.4 mph N/A   Mostly Cloudy
10:55 PM 60.1 °F 55.9 °F 86% 29.88 in 10.0 mi NNW 9.2 mph 17.3 mph N/A   Mostly Cloudy
11:25 PM 60.8 °F 55.4 °F 82% 30.10 in 10.0 mi North 9.2 mph 25.3 mph N/A   Mostly Cloudy
11:55 PM 60.1 °F 55.9 °F 86% 29.87 in 10.0 mi NNW 13.8 mph 19.6 mph N/A   Overcast